EW8555 Weather Reports


time (UTC)temp
C
wind
direction
speed
KPH
gust
KPH
rain 1hr
cm
rain 24hr
cm
rain mn
cm
humidity
%
barometer
mb
20260903220107 17 255 3.2 8.0 0.00 0.00 0.00 83 1013.0
20260903214557 17 259 3.2 11.3 0.00 0.00 0.00 83 1012.8
20260903213057 17 240 3.2 12.9 0.00 0.00 0.00 83 1012.6
20260903211608 17 204 4.8 17.7 0.00 0.00 0.00 83 1012.7
20260903210057 17 171 8.0 17.7 0.00 0.00 0.00 82 1012.7
20260903204601 17 210 6.4 16.1 0.00 0.00 0.00 82 1012.8
20260903203054 17 244 6.4 14.5 0.00 0.00 0.00 82 1012.7
20260903201556 18 236 4.8 12.9 0.00 0.00 0.00 81 1012.8
20260903200101 18 223 3.2 14.5 0.00 0.00 0.00 80 1012.8
20260903194554 18 217 6.4 16.1 0.00 0.00 0.00 80 1012.9
20260903193056 18 259 6.4 19.3 0.00 0.00 0.00 79 1012.9
20260903191601 18 198 4.8 17.7 0.00 0.00 0.00 77 1012.8
20260903190052 19 170 6.4 16.1 0.00 0.00 0.00 76 1012.6
20260903184553 19 239 6.4 20.9 0.00 0.00 0.00 75 1012.9
20260903183113 20 229 6.4 19.3 0.00 0.00 0.00 73 1012.9
20260903181554 20 252 3.2 16.1 0.00 0.00 0.00 74 1012.8
20260903180049 20 216 8.0 22.5 0.00 0.00 0.00 74 1012.4
20260903174548 20 256 6.4 19.3 0.00 0.00 0.00 74 1012.5
20260903173047 20 245 6.4 16.1 0.00 0.00 0.00 73 1012.4
20260903171551 20 205 6.4 20.9 0.00 0.00 0.00 72 1012.5
20260903170047 20 207 8.0 19.3 0.00 0.00 0.00 71 1012.2
20260903164548 21 161 6.4 24.1 0.00 0.00 0.00 69 1012.2
20260903163045 21 236 14.5 27.4 0.00 0.00 0.00 68 1012.2
20260903161600 21 184 14.5 30.6 0.00 0.00 0.00 65 1012.2
20260903160044 22 249 9.7 33.8 0.00 0.00 0.00 64 1012.2
20260903154543 22 266 9.7 30.6 0.00 0.00 0.00 62 1012.3
20260903153042 22 250 9.7 32.2 0.00 0.00 0.00 60 1012.2
20260903151545 22 271 9.7 32.2 0.00 0.00 0.00 58 1012.2
20260903150041 22 229 4.8 29.0 0.00 0.00 0.00 56 1012.1
20260903144540 23 255 9.7 41.8 0.00 0.00 0.00 55 1012.2
20260903143042 23 269 9.7 25.7 0.00 0.00 0.00 55 1012.3
20260903141537 23 232 6.4 16.1 0.00 0.00 0.00 55 1012.4
20260903140036 23 291 4.8 22.5 0.00 0.00 0.00 55 1012.4
20260903134635 23 220 12.9 37.0 0.00 0.00 0.00 54 1012.4
20260903133044 23 229 9.7 32.2 0.00 0.00 0.00 55 1012.3
20260903131539 22 238 8.0 25.7 0.00 0.00 0.00 55 1012.4
20260903130033 22 230 17.7 37.0 0.00 0.00 0.00 55 1012.6
20260903124548 22 203 19.3 33.8 0.00 0.00 0.00 56 1012.7
20260903123030 23 243 11.3 32.2 0.00 0.00 0.00 55 1012.8
20260903121541 23 218 14.5 32.2 0.00 0.00 0.00 55 1012.8
20260903120026 22 273 17.7 30.6 0.00 0.00 0.00 56 1013.1
20260903114524 22 246 8.0 27.4 0.00 0.00 0.00 57 1013.3
20260903113021 21 245 12.9 27.4 0.00 0.00 0.00 59 1013.5
20260903111517 21 215 11.3 25.7 0.00 0.00 0.00 59 1013.5
20260903110016 21 251 12.9 37.0 0.00 0.00 0.00 59 1013.9
20260903104512 21 210 11.3 25.7 0.00 0.00 0.00 60 1013.9
20260903103010 20 196 17.7 30.6 0.00 0.00 0.00 60 1014.2
20260903101509 20 225 9.7 25.7 0.00 0.00 0.00 61 1014.3
20260903100018 20 275 12.9 25.7 0.00 0.00 0.00 60 1014.3
20260903094504 20 279 9.7 24.1 0.00 0.00 0.00 63 1014.7
20260903093001 20 245 4.8 11.3 0.00 0.00 0.00 62 1015.1
20260903091607 20 218 14.5 25.7 0.00 0.00 0.00 62 1015.1
20260903090057 19 204 8.0 19.3 0.00 0.00 0.00 66 1015.0
20260903084554 19 238 9.7 20.9 0.00 0.00 0.00 67 1015.2
20260903083057 18 250 12.9 20.9 0.00 0.00 0.00 69 1015.5
20260903081551 18 198 9.7 22.5 0.00 0.00 0.00 70 1015.7
20260903080046 18 225 8.0 17.7 0.00 0.00 0.00 73 1015.7
20260903074544 17 199 6.4 17.7 0.00 0.00 0.00 75 1015.6
20260903073046 17 202 8.0 16.1 0.00 0.00 0.00 77 1015.7
20260903071537 16 198 8.0 16.1 0.00 0.00 0.00 80 1015.7
20260903070034 16 255 9.7 16.1 0.00 0.00 0.00 80 1015.8
20260903064533 15 237 8.0 17.7 0.00 0.00 0.00 82 1015.9
20260903063032 15 194 6.4 14.5 0.00 0.00 0.00 83 1016.1
20260903061530 15 246 8.0 16.1 0.00 0.00 0.00 83 1016.0
20260903060027 14 214 9.7 17.7 0.00 0.00 0.00 83 1016.1
20260903054524 14 223 6.4 12.9 0.00 0.00 0.00 83 1016.2
20260903053023 14 200 8.0 14.5 0.00 0.00 0.00 84 1016.2
20260903051542 14 238 1.6 9.7 0.00 0.00 0.00 84 1016.3
20260903050041 13 215 3.2 9.7 0.00 0.00 0.00 85 1016.2
20260903044539 13 237 1.6 6.4 0.00 0.00 0.00 85 1016.2
20260903043046 13 200 3.2 8.0 0.00 0.00 0.00 85 1016.1
20260903041537 13 200 3.2 8.0 0.00 0.00 0.00 84 1016.0
20260903040036 13 222 4.8 11.3 0.00 0.00 0.00 84 1016.1
20260903034534 13 202 3.2 8.0 0.00 0.00 0.00 84 1016.1
20260903033032 13 238 0.0 6.4 0.00 0.00 0.00 84 1016.3
20260903031542 14 238 0.0 6.4 0.00 0.00 0.00 83 1016.4
20260903030032 14 249 0.0 6.4 0.00 0.00 0.00 86 1016.5
20260903024530 14 250 1.6 6.4 0.00 0.00 0.00 82 1016.4
20260903023029 14 251 1.6 6.4 0.00 0.00 0.00 82 1016.4
20260903021529 14 243 0.0 6.4 0.00 0.00 0.00 82 1016.4
20260903020037 14 232 1.6 6.4 0.00 0.00 0.00 81 1016.4
20260903014526 14 238 0.0 6.4 0.00 0.00 0.00 82 1016.5
20260903013026 14 237 1.6 6.4 0.00 0.00 0.00 82 1016.6
20260903011526 14 272 0.0 4.8 0.00 0.00 0.00 82 1016.7
20260903010025 13 236 1.6 8.0 0.00 0.00 0.00 83 1016.7
20260903004524 13 248 3.2 11.3 0.00 0.00 0.00 83 1016.7
20260903003024 13 250 3.2 11.3 0.00 0.00 0.00 82 1016.7
20260903001522 14 240 1.6 6.4 0.00 0.00 0.00 82 1016.7
20260903000021 14 261 1.6 6.4 0.00 0.00 0.00 81 1016.7
20260902234518 15 213 1.6 6.4 0.00 0.00 0.00 81 1016.7
20260902233017 15 257 1.6 8.0 0.00 0.00 0.00 81 1016.7
20260902231516 15 241 3.2 9.7 0.00 0.00 0.00 80 1016.7
20260902230018 15 248 1.6 6.4 0.00 0.00 0.00 81 1016.5
20260902224515 15 235 1.6 6.4 0.00 0.00 0.00 81 1016.5
20260902223017 15 236 0.0 6.4 0.00 0.00 0.00 81 1016.6
20260902221610 15 229 1.6 6.4 0.00 0.00 0.00 80 1016.6